Sable Island, Nova Scotia

7:13 PM AST on December 14, 2017 (GMT -0400)
Sable Island

Weather History for CWSA - December, 2012

Change the Weather History Date:

Tuesday, December 18, 2012

  Actual Average Record
Temperature  
Mean Temperature 40 °F -  
Max Temperature 42 °F 39 °F 53 °F (2015)
Min Temperature 37 °F 28 °F 14 °F (2013)
Degree Days  
Heating Degree Days 26    
Moisture  
Dew Point 33 °F    
Average Humidity 72    
Maximum Humidity 76    
Minimum Humidity 57    
Precipitation  
Precipitation 0.02 in 0.19 in - ()
Sea Level Pressure  
Sea Level Pressure 29.97 in    
Wind  
Wind Speed 20 mph ()    
Max Wind Speed 34 mph    
Max Gust Speed 41 mph    
Visibility 8.5 miles    
Events Rain    
Averages and records for this station are not official NWS values.
T = Trace of Precipitation, MM = Missing Value Source: Averaged Metar Reports

Daily Weather History Graph

Daily Weather History Graph

Search for Another Location

Airport or City:

Trip Planner

Search our weather history database for the weather conditions in past years. The results will help you decide how hot, cold, wet, or windy it might be!

Date:

Astronomy

Dec. 18, 2012 Rise Set
Actual Time 7:29 AM AST 4:23 PM AST
Civil Twilight 6:56 AM AST 4:57 PM AST
Nautical Twilight 6:20 AM AST 5:33 PM AST
Astronomical Twilight 5:45 AM AST 6:08 PM AST
Moon 10:56 AM AST (12/18) 10:56 PM AST (12/18)
Length of Visible Light 10h 00m
Length of Day
8h 54m
Waxing Crescent, 34% of the Moon is Illuminated
Dec 18
Waxing Crescent
Dec 20
First Quarter
Dec 28
Full
Jan 4
Last Quarter
Jan 11
New

Hourly Weather History & Observations

Time (AST) Temp. Windchill Dew Point Humidity Pressure Visibility Wind Dir Wind Speed Gust Speed Precip Events Conditions
12:00 AM 39.2 °F 31.2 °F 28.4 °F 65% 30.19 in 9.0 mi East 13.8 mph - N/A   Overcast
1:00 AM 39.2 °F 30.5 °F 28.4 °F 65% 30.17 in 9.0 mi ESE 16.1 mph - N/A   Overcast
2:00 AM 39 °F - 29 °F 57% 30.15 in 9 mi East 16.1 mph - -   Overcast
2:00 AM 39.2 °F 31.2 °F 28.4 °F 65% 30.15 in 9.0 mi East 13.8 mph 23.0 mph N/A   Overcast
3:00 AM 37.4 °F 28.9 °F 28.4 °F 70% 30.14 in 9.0 mi East 13.8 mph - N/A   Scattered Clouds
4:00 AM 37.4 °F 28.5 °F 30.2 °F 75% 30.14 in 9.0 mi East 15.0 mph - N/A   Clear
5:00 AM 38 °F - 31 °F 69% 30.14 in 9 mi East 15.0 mph - -  
5:00 AM 39.2 °F 30.5 °F 32.0 °F 75% 30.14 in 9.0 mi East 16.1 mph - N/A   Partly Cloudy
6:00 AM 39.2 °F 29.8 °F 30.2 °F 70% 30.13 in 9.0 mi East 18.4 mph - N/A   Clear
7:00 AM 39.2 °F 30.8 °F 32.0 °F 75% 30.14 in 9.0 mi East 15.0 mph 20.7 mph N/A   Partly Cloudy
7:04 AM 39.2 °F 30.5 °F 32.0 °F 75% 30.13 in 9.0 mi East 16.1 mph - N/A   Mostly Cloudy
8:00 AM 40 °F - 32 °F 64% 30.11 in 9 mi East 19.6 mph - -  
8:00 AM 39.2 °F 29.8 °F 32.0 °F 75% 30.11 in 9.0 mi East 18.4 mph 24.2 mph N/A   Mostly Cloudy
8:43 AM 41.0 °F 31.6 °F 33.8 °F 76% 30.09 in 9.0 mi East 20.7 mph 27.6 mph N/A   Mostly Cloudy
9:00 AM 41.0 °F 31.4 °F 33.8 °F 76% 30.09 in 9.0 mi East 21.9 mph - N/A   Mostly Cloudy
9:10 AM 41.0 °F 30.9 °F 33.8 °F 76% 30.08 in 9.0 mi East 24.2 mph - N/A   Mostly Cloudy
9:25 AM 41.0 °F 31.4 °F 33.8 °F 76% 30.08 in 9.0 mi East 21.9 mph 27.6 mph N/A   Scattered Clouds
10:00 AM 41.0 °F 30.9 °F 33.8 °F 76% 30.06 in 9.0 mi East 24.2 mph 32.2 mph N/A   Scattered Clouds
10:50 AM 42.8 °F 32.7 °F 33.8 °F 70% 30.03 in 9.0 mi East 27.6 mph 33.4 mph N/A   Overcast
11:00 AM 42 °F - 34 °F 64% 30.02 in 9 mi East 25.3 mph - -   Overcast
11:00 AM 42.8 °F 33.3 °F 33.8 °F 70% 30.02 in 9.0 mi East 24.2 mph 32.2 mph N/A   Overcast
12:00 PM 42.8 °F 33.3 °F 35.6 °F 76% 29.99 in 4.0 mi East 24.2 mph 32.2 mph N/A   Overcast
1:00 PM 42.8 °F 32.7 °F 33.8 °F 70% 29.95 in 9.0 mi East 27.6 mph 35.7 mph N/A   Mostly Cloudy
1:05 PM 42.8 °F 33.1 °F 33.8 °F 70% 29.94 in 9.0 mi East 25.3 mph 38.0 mph N/A   Mostly Cloudy
1:11 PM 42.8 °F 32.3 °F 33.8 °F 70% 29.94 in 9.0 mi East 29.9 mph 38.0 mph N/A   Mostly Cloudy
1:29 PM 42.8 °F 32.3 °F 33.8 °F 70% 29.94 in 9.0 mi East 29.9 mph 35.7 mph N/A   Scattered Clouds
2:00 PM 42 °F - 34 °F 64% 29.92 in 9 mi East 27.6 mph - -   Unknown Precipitation
2:00 PM 42.8 °F 31.9 °F 33.8 °F 70% 29.92 in 9.0 mi East 32.2 mph 39.1 mph N/A   Partly Cloudy
3:00 PM 42.8 °F 33.5 °F 35.6 °F 76% 29.91 in 9.0 mi East 23.0 mph 33.4 mph N/A   Partly Cloudy
3:31 PM 42.8 °F 32.5 °F 33.8 °F 70% 29.90 in 9.0 mi East 28.8 mph 35.7 mph N/A   Mostly Cloudy
4:00 PM 42.8 °F 33.1 °F 35.6 °F 76% 29.89 in 9.0 mi East 25.3 mph 34.5 mph N/A   Mostly Cloudy
4:25 PM 42.8 °F 32.5 °F 33.8 °F 70% 29.87 in 9.0 mi East 28.8 mph 36.8 mph N/A   Mostly Cloudy
4:31 PM 42.8 °F 32.9 °F 35.6 °F 76% 29.87 in 9.0 mi East 26.5 mph 36.8 mph N/A   Mostly Cloudy
5:00 PM 42 °F - 35 °F 68% 29.86 in 7 mi East 31.1 mph - -   Overcast
5:00 PM 42.8 °F 32.5 °F 35.6 °F 76% 29.86 in 7.0 mi East 28.8 mph 40.3 mph N/A   Overcast
6:00 PM 42.8 °F 32.7 °F 35.6 °F 76% 29.85 in 7.0 mi East 27.6 mph 39.1 mph N/A   Overcast
6:01 PM 42.8 °F 32.9 °F 35.6 °F 76% 29.85 in 7.0 mi East 26.5 mph 39.1 mph N/A   Overcast
6:30 PM 42.8 °F 31.9 °F 33.8 °F 70% 29.83 in 8.0 mi East 32.2 mph 41.4 mph N/A   Mostly Cloudy
7:00 PM 42.8 °F 31.8 °F 35.6 °F 76% 29.83 in 8.0 mi East 33.4 mph 40.3 mph N/A   Overcast
7:52 PM 42.8 °F 31.6 °F 33.8 °F 70% 29.81 in 9.0 mi East 34.5 mph 40.3 mph N/A   Overcast
8:00 PM 42 °F - 35 °F 69% 29.82 in 9 mi East 31.1 mph - -   Unknown Precipitation
8:00 PM 42.8 °F 32.5 °F 35.6 °F 76% 29.82 in 9.0 mi East 28.8 mph 40.3 mph N/A   Overcast
8:47 PM 42.8 °F 32.9 °F 35.6 °F 76% 29.82 in 9.0 mi East 26.5 mph 38.0 mph N/A   Overcast
9:00 PM 42.8 °F 32.1 °F 35.6 °F 76% 29.82 in 9.0 mi East 31.1 mph 36.8 mph N/A   Overcast
9:29 PM 42.8 °F 32.3 °F 35.6 °F 76% 29.81 in 8.0 mi East 29.9 mph 36.8 mph N/A   Overcast
10:00 PM 42.8 °F 32.1 °F 35.6 °F 76% 29.81 in 8.0 mi East 31.1 mph 38.0 mph N/A   Overcast
11:00 PM 42 °F - 34 °F 66% 29.77 in 7 mi East 29.9 mph - -   Overcast
11:00 PM 42.8 °F 31.8 °F 33.8 °F 70% 29.77 in 8.0 mi East 33.4 mph 40.3 mph N/A   Overcast
11:59 PM 42.8 °F 32.7 °F 35.6 °F 76% 29.76 in 6.0 mi East 27.6 mph 36.8 mph N/A Rain Light Rain